Tracking 30995 objects as of 5-Jul-2025
HD Live streaming from Space Station
objects crossing your sky now

OBJECT A

Track OBJECT A now!
10-day predictions


NORAD ID: 56846
Int'l Code: 2023-081A
Perigee: 514.2 km
Apogee: 516.4 km
Inclination: 97.4 °
Period: 94.8 minutes
Semi major axis: 6886 km
RCS: Unknown
Launch date: June 7, 2023
Source: (TBD)
Launch site: Jiuquan Satellite Launch Center, China (JSC)
Your satellite tracking list
Your tracking list is empty




NASA's NSSDC Master Catalog

Two Line Element Set (TLE):
1 56846U 23081A   25186.57875217  .00002328  00000-0  11375-3 0  9992
2 56846  97.4119 257.9810 0001580  86.1699 273.9717 15.19228435115314
Source of the keplerian elements: AFSPC